www.pogodaiklimat.ru

Погода и климат >> Архив погоды >> Мексика >> Queretaro


ПОГОДА в Queretaro

  • Прогноз погоды в Queretaro
  • Монитор погоды в Queretaro
  • Климат города

АРХИВ ПОГОДЫ в Queretaro

Время (UTC), дата Ветер
(напр.,м/с)
 
Видим.   Явления Облачность Т
(С)
Тd
(С)
f
(%)
Тe
(С)
Тes
(С)
Комфортность P
(гПа)
Po
(гПа)
Тmin
(С)
Tmax
(С)
R
(мм)
R24
(мм)
S
(см)
12 17.04 СЗ 1 10 км 4/0 2000 м
[Ac trans]
+14.7 +8.1 65 +15 +15 1011.8 816.2 +14.1 +29.8
15 17.04 СЗ 1 20 км 6/0 2000 м
[Ac trans Ci fib]
+17.1 +8.0 55 +18 +25 1014.7 817.3
18 17.04 СЗ 2 20 км 3/0
[Ac As]
+26.6 +8.3 31 +27 +43 жарко 1010.8 814.8 +14.1 +26.8
21 17.04 СЗ 3 20 км 3/3 870 м
[Cu med, cong]
+29.9 +6.6 23 +29 +38 жарко 1005.9 812.6
00 18.04 СЗ 3 20 км 4/4 600 м
[Cu hum]
+29.4 +7.9 26 +29 +29 жарко 1001.7 811.2 +14.1 +30.4
03 18.04 ЮЗ 2 20 км 3/3 870 м
[Cu med, cong]
+24.8 +7.2 32 1001.2 812.2
06 18.04 В 2 10 км 3/3 750 м
[Cu hum]
+22.6 +8.3 40 +24 +24 комфорт 1003.2 813.8 +14.1 +30.4
09 18.04 В 2 10 км 1/1 750 м
[Cu hum]
+20.4 +8.2 45 +22 +22 комфорт 1005.0 814.1
12 18.04 штиль 0 10 км ясно +16.3 +8.5 60 +16 +16 1007.5 814.4 +15.3 +30.4
15 18.04 СЗ 1 20 км ясно +19.4 +8.7 50 +21 +31 комфорт 1010.6 815.7
18 18.04 З 2 20 км ясно +27.3 +8.2 30 +27 +48 жарко 1008.1 814.1 +15.3 +27.5
21 18.04 СЗ 1 20 км 1/1 840 м
[Cu hum]
+31.7 +9.9 26 +31 +47 жарко 1004.0 812.1
00 19.04 СЗ 3 20 км 6/6 600 м
[Cu med, cong]
+28.8 +7.7 27 +28 +29 жарко 1000.9 811.3 +15.3 +31.8
03 19.04 СВ 4 20 км 5/5 840 м
[Cu med, cong Ac As]
+25.2 +8.6 35 +26 +26 жарко 1000.6 812.1
06 19.04 В 2 10 км 1/1 750 м
[Cu hum]
+22.8 +7.3 37 +24 +24 комфорт 1003.3 814.0 +15.3 +31.8
09 19.04 В 2 10 км 3/3 750 м
[Cu hum]
+20.6 +7.7 43 +22 +22 комфорт 1004.4 814.1
12 19.04 В 1 5000 м ясно +15.2 +12.1 82 +16 +16 1008.5 815.2 +14.5 +31.8
15 19.04 В 3 20 км 4/4 800 м
[Cu med, cong]
+18.8 +12.3 66 +20 +24 1012.5 817.1
18 19.04 В 2 20 км ясно +26.5 +10.2 36 +27 +48 жарко 1011.0 816.1 +14.5 +26.7
21 19.04 В 3 20 км 1/1 870 м
[Cu hum]
+30.7 +10.5 29 +31 +42 жарко 1006.6 813.8
00 20.04 СВ 6 20 км 1/1 600 м
[Cu hum]
+28.2 +10.8 34 +29 +29 жарко 1003.1 812.7 +14.5 +30.8
03 20.04 СВ 6 20 км ясно +19.4 +9.8 54 +20 +20 1004.5 814.5
06 20.04 В 4 10 км ясно +17.0 +10.8 67 +17 +17 1007.3 815.8 +14.5 +30.8
09 20.04 В 3 10 км ясно +15.0 +10.6 75 +14 +14 1009.9 815.8
12 20.04 В 2 10 км ясно +13.6 +10.4 81 +13 +13 1012.2 815.4 +13.0 +30.8
15 20.04 В 2 20 км ясно +16.7 +11.6 72 +17 +25 1015.8 817.3
18 20.04 СЗ 2 18 км мгла {туман} ясно +25.6 +12.1 43 +27 +48 жарко 1012.3 815.3 +13.0 +25.8
21 20.04 СЗ 1 18 км мгла {туман} 1/1 900 м
[Cu hum]
+29.7 +9.0 28 +29 +46 жарко 1005.0 811.4
00 21.04 СВ 3 18 км 9/6 600 м
[Cu Sc Ac As]
+29.0 +10.3 31 +29 +29 жарко 1001.9 811.1 +13.0 +30.0
03 21.04 В 4 18 км 3/0
[Ac As]
+24.4 +10.7 42 +26 +26 жарко 1001.7 812.5
06 21.04 В 1 10 км ясно +21.0 +12.3 58 +25 +25 комфорт 1004.3 814.4 +13.0 +30.0
09 21.04 В 1 10 км ясно +18.6 +11.2 62 +20 +20 1005.4 814.0
12 21.04 штиль 0 10 км ясно +17.1 +10.9 67 +17 +17 1007.1 813.7 +16.7 +30.0
15 21.04 З 3 20 км ясно +20.6 +11.6 56 +23 +29 комфорт 1010.1 815.0
18 21.04 З 3 18 км мгла {туман} ясно +27.3 +11.1 36 +28 +46 жарко 1007.6 813.5 +16.7 +27.5
21 21.04 СЗ 2 20 км 4/4 870 м
[Cu med, cong]
+30.4 +10.9 30 +31 +40 жарко 1002.0 810.4
00 22.04 З 2 20 км 3/3 600 м
[Cu med, cong]
+30.2 +10.8 30 +30 +31 жарко 999.6 810.4 +16.7 +30.7
03 22.04 В 1 5000 м 8/8 800 м
[Cu med, cong]
+26.5 +11.6 39 +28 +28 жарко 1000.0 811.9
06 22.04 Ю 1 5000 м 1/1 800 м
[Cu hum]
+23.1 +12.7 52 +26 +26 жарко 1002.4 813.7 +16.7 +31.7
12 22.04 штиль 0 10 км 4/0 2000 м
[Ac trans]
+18.1 +11.3 64 +18 +18 1006.1 813.8 +17.5 +30.7
15 22.04 З 2 20 км 6/0 2000 м
[Ac trans]
+21.0 +12.3 58 +24 +29 комфорт 1008.3 814.4
18 22.04 З 2 18 км 5/0
[Ac As]
+28.2 +12.5 38 +30 +43 жарко 1006.6 813.2 +17.5 +28.5
21 22.04 З 2 17 км мгла {туман} 8/3 900 м
[Cu Sc Ac inh]
+30.6 +10.2 28 +30 +36 жарко 1001.8 810.7
00 23.04 СВ 5 17 км 8/4 600 м
[Cu Sc Ac As]
+29.0 +14.8 42 +31 +32 жарко 998.9 809.9 +17.5 +31.6
03 23.04 В 6 17 км 9/5 900 м
[Cu Sc Ac As]
+21.2 +13.5 61 +24 +24 комфорт 1000.8 812.1
06 23.04 В 3 5000 м 5/5 800 м
[Cu hum]
+18.8 +13.6 72 +20 +20 1005.4 814.9 +17.5 +31.6
09 23.04 В 2 5000 м 3/3 800 м
[Cu hum]
+17.2 +13.3 78 +18 +18 1006.7 814.1
12 23.04 ЮВ 1 10 км 8/0 2000 м
[]
+16.5 +13.4 82 +17 +17 1009.7 814.6 +15.8 +31.6
15 23.04 В 2 20 км 9/0 2000 м
[Ac As]
+19.4 +14.1 71 +22 +25 комфорт 1012.3 815.9
18 23.04 ЮЗ 1 17 км мгла {туман} 6/0
[Ac inh]
+27.0 +14.7 47 +30 +44 душно 1009.7 814.5 +15.8 +27.2
21 23.04 З 2 17 км мгла {туман} 5/4 870 м
[Cu Sc Ac As]
+30.9 +13.1 34 +32 +40 жарко 1004.1 811.8
00 24.04 СВ 4 17 км 6/5 600 м
[Cu Sc Ac As]
+29.2 +13.3 38 +31 +31 жарко 1000.5 810.7 +15.8 +31.0
03 24.04 ЮВ 4 17 км 8/5 870 м
[Cu Sc Ac As]
+23.0 +14.3 58 +27 +27 душно 1001.4 812.5
06 24.04 В 2 10 км 5/1 750 м
[Cu hum Ac cuf]
+19.8 +14.5 71 +22 +22 комфорт 1005.5 815.2 +15.8 +31.0

 

Местоположение метеостанции Queretaro (Мексика): широта 20.58 долгота -100.40 высота над уровнем моря 1880 м.

В архиве по умолчанию представлена погода в Queretaro за последнюю неделю. Архивные данные за месяц целиком и за предыдущие месяцы, начиная с января 2011 года, Вы можете получить, выбрав интересующий диапазон дат из раскрывающегося списка и нажав кнопку "Ввод!".


*Определитесь, кто Вы:
робот инопланетянин человек

Внимание! Время в таблицах - всемирное. Для получения местного времени необходимо прибавить поправку, которая в Queretaro равна -6 ч.

Смотрите также архив погоды в соседних городах и на ближайших метеорологических станциях:

Погода в Guanajuato (Мексика) (95 км)
Погода в Morelia (Мексика) (122 км)
Погода в Rio Verde (Мексика) (156 км)
Погода в Toluca (Мексика) (163 км)
Погода в Pachuca (Мексика) (179 км)
Погода в Lagos De Moreno (Мексика) (180 км)
Погода в Mexico City (Мексика) (183 км)
Погода в Matlapa (Мексика) (185 км)
Погода в San Luis Potosi (Мексика) (185 км)
Погода в Institute of Geography (Мексика) (189 км)

Пояснения к столбцам:

Ветер - указаны скорость ветра в м/с - средняя за 10 мин, порывы в срок и между сроками (в фигурных скобках) и направление, откуда дует ветер: С - северный, СВ - северо-восточный, В - восточный, ЮВ - юго-восточный, Ю - южный, ЮЗ - юго-западный, З - западный, СЗ - северо-западный.
Видимость - горизонтальная дальность видимости в метрах или километрах. При видимости от 1 до 10 км при отсутствии осадков обычно наблюдается дымка, при ухудшении видимости до 1 км и менее - туман. В сухую погоду видимость может ухудшаться дымом, пылью или мглою.
Явления - указаны атмосферные явления, наблюдавшиеся в срок или в последний час перед сроком; фигурными скобками обозначены явления, наблюдавшиеся между сроками (за 1-3 часа до срока); квадратными скобками обозначены град или гололедные отложения с указанием их диаметра в мм.
Облачность - указаны через наклонную черту общая и нижняя облачность в баллах и высота нижней границы облаков в метрах; квадратными скобками обозначены формы облаков: Ci - перистые, Cs - перисто-слоистые, Cc - перисто-кучевые, Ac - высококучевые, As - высокослоистые, Sc - слоисто-кучевые, Ns - слоисто-дождевые, Cu - кучевые, Cb - кучево-дождевые. Подробнее классификацию облаков см. в Атласе облаков (PDF).
T - Температура воздуха - температура, измеренная на высоте 2 м над землей.
Td - Температура точки росы - температура, при понижении до которой содержащийся в воздухе водяной пар достигнет насыщения.
f - Относительная влажность воздуха - влажноcть воздуха, измеренная на высоте 2 м над землей.
Te - Эффективная температура - температура, которую ощущает одетый по сезону человек в тени. Характеристика душности погоды. При расчете учитывается влияние влажности воздуха и скорости ветра на теплоощущения человека.
Tes - Эффективная температура на солнце - температура, которую ощущает человек, с поправкой на солнечный нагрев. Характеристика знойности погоды. Зависит от высоты солнца над горизонтом, облачности и скорости ветра. Ночью, в пасмурную погоду, а также при ветре 12 м/с и более поправка равна нулю.
P - Атмосферное давление - приведенное к уровню моря атмосферное давление.
Po - Атмосферное давление - измеренное на уровне метеостанции атмосферное давление.
Tmin - Минимальная температура - минимум температуры воздуха на высоте 2 м над землей.
Tmax - Максимальная температура - максимум температуры воздуха на высоте 2 м над землей.
R - Количество осадков - Количество выпавших осадков за период времени, мм. При наведении курсора мыши на число - период времени, за который выпало указанное количество осадков.
R24 - Количество осадков - Количество выпавших осадков за 24 часа, мм.
S - Снежный покров - Высота снежного покрова, см. При наведении курсора мыши на число - состояние снежного покрова и степень покрытия местности в баллах.